Terminal Aerodrome Forecast
Issued by NWS

Home | Current Version | Previous Version | Text Only | Print | Product List | Glossary On
Versions: 1 2 3 4 5 6 7 8 9 10 11 12 13 14 15 16 17 18 19 20 21 22 23 24 25 26 27 28 29 30 31 32 33 34 35 36 37 38 39 40 41 42 43 44 45 46 47 48 49 50
000
FTUS41 KCTP 211740
TAFBFD
TAF
KBFD 211740Z 2118/2218 33007KT 3SM -SHRA OVC020
     FM212200 35007KT 6SM -SHRA BR OVC012
     FM220500 34010KT 2SM -SHRA BR BKN004 OVC009
     FM221000 35010KT 4SM -DZ BR OVC004=

USA.gov is the U.S. government's official web portal to all federal, state and local government web resources and services.